Regional Weather Roundup
Issued by NWS

Home | Current Version | Previous Version | Graphics & Text | Print | Product List | Glossary On
Versions: 1 2 3 4 5 6 7 8 9 10 11 12 13 14 15 16 17 18 19 20 21 22 23 24 25 26 27 28 29 30 31 32 33 34 35 36 37 38 39 40 41 42 43 44 45 46 47 48 49 50
000
ASUS43 KOAX 230202
RWRNE

WEATHER ROUNDUP FOR NEBRASKA
NATIONAL WEATHER SERVICE OMAHA NE
900 PM CDT TUE AUG 22 2017

NOTES: SATELLITE DATA IS BEING USED TO AUGMENT CLOUD COVER ABOVE
       12000 FEET.
       "FAIR" INDICATES FEW OR NO CLOUDS BELOW 12,000 FEET WITH NO
       SIGNIFICANT WEATHER AND/OR OBSTRUCTIONS TO VISIBILITY.


NEZ001>004-019>022-054>056-230300-
NEBRASKA PANHANDLE

CITY           SKY/WX    TMP DP  RH WIND       PRES   REMARKS
SCOTTSBLUFF    CLEAR     71  53  52 E12       30.13R
ALLIANCE       CLEAR     66  51  58 SE10      30.16R
CHADRON        CLEAR     72  47  40 SE10      30.10S
GORDON         FAIR      70  46  42 S8        30.15S
KIMBALL        CLOUDY    71  53  52 SE14      30.21S
SIDNEY         CLOUDY    71  51  49 S15       30.19F
$$

NEZ057>060-069>072-079>082-230300-
SOUTHWEST NEBRASKA

CITY           SKY/WX    TMP DP  RH WIND       PRES   REMARKS
NORTH PLATTE   CLEAR     65  56  72 SE5       30.18S
IMPERIAL       CLEAR     63  52  67 SE7       30.19R
LEXINGTON      CLEAR     66  56  71 SE5       30.19S
MCCOOK         CLEAR     68  54  60 E7        30.18R
OGALLALA       CLEAR     70  53  53 SE8       30.18S
$$

NEZ005>010-023>029-035>040-094-230300-
NORTH CENTRAL NEBRASKA

CITY           SKY/WX    TMP DP  RH WIND       PRES   REMARKS
VALENTINE      CLEAR     72  48  42 SE9       30.14S
AINSWORTH      CLEAR     64  55  72 SE6       30.16S
BROKEN BOW     CLEAR     68  54  60 SE6       30.18R
O`NEILL        CLEAR     65  55  69 E5        30.17S
ORD            CLEAR     65  57  75 CALM      30.15F
THEDFORD       CLEAR     72  51  47 S8        30.17F
$$

NEZ041-046>049-061>064-073>077-083>087-230300-
SOUTH CENTRAL NEBRASKA

CITY           SKY/WX    TMP DP  RH WIND       PRES   REMARKS
GRAND ISLAND   CLEAR     66  56  70 SE5       30.18R
AURORA         CLEAR     64  59  86 E3        30.18R
HASTINGS       CLEAR     67  53  61 E5        30.18S
HEBRON         CLEAR     64  57  77 CALM      30.17S
HOLDREGE       CLEAR     64  58  79 SE3       30.19S
KEARNEY        CLEAR     69  57  65 E3        30.18S
$$

NEZ011>018-030>034-042>045-230300-
NORTHEAST NEBRASKA

CITY           SKY/WX    TMP DP  RH WIND       PRES   REMARKS
NORFOLK        CLEAR     61  56  83 CALM      30.15R
ALBION         CLEAR     63  57  81 CALM      30.17S
BLAIR          CLEAR     65  52  61 NW3       30.14S
COLUMBUS       CLEAR     62  58  86 CALM      30.17S
FREMONT        CLEAR     65  56  73 CALM      30.16S
TEKAMAH        CLEAR     61  58  90 W5        30.14R
WAYNE          CLEAR     60  57  91 CALM      30.15S
$$

NEZ050>053-065>068-078-088>093-230300-
SOUTHEAST NEBRASKA

CITY           SKY/WX    TMP DP  RH WIND       PRES   REMARKS
LINCOLN        CLEAR     62  55  77 N7        30.16S
OMAHA EPPLEY   PTCLDY    67  56  67 N3        30.14R
BEATRICE       CLEAR     67  55  65 NE5       30.16R
FALLS CITY     CLEAR     66  53  63 NW3       30.13R
NEBRASKA CITY  CLEAR     65  56  71 N5        30.14S
PLATTSMOUTH    CLEAR     64  52  67 NW5       30.14S
$$

NEZ044-045-051>053-067-230300-
OMAHA AREA

CITY           SKY/WX    TMP DP  RH WIND       PRES   REMARKS
OMAHA EPPLEY   PTCLDY    67  56  67 N3        30.14R
BLAIR          CLEAR     65  52  61 NW3       30.14S
FREMONT        CLEAR     65  56  73 CALM      30.16S
MILLARD        CLEAR     68  54  60 CALM      30.14S
OFFUTT AFB     CLEAR     63  53  71 N5        30.13S
PLATTSMOUTH    CLEAR     64  52  67 NW5       30.14S
WAHOO          FAIR      64  56  76 NW3       30.15S
$$




USA.gov is the U.S. government's official web portal to all federal, state and local government web resources and services.